This is the latest recevied weather packets stored in our database for station/object K7TSD. If no packets are shown the sender has not sent any weather packets the latest 10 day(s).
| Time | Temp. | Humidity | Pressure | Rain* | Wind** | Luminosity | Snow |
|---|---|---|---|---|---|---|---|
| 1777500153 | 7.78° C | 62% | 1018.1 hPa | 0 mm | - | 149 W/m² | - |
| 1777499851 | 7.78° C | 62% | 1018.2 hPa | 0 mm | - | 215 W/m² | - |
| 1777499547 | 7.78° C | 64% | 1018 hPa | 0 mm | - | 192 W/m² | - |
| 1777499245 | 8.33° C | 62% | 1017.8 hPa | 0 mm | - | 172 W/m² | - |
| 1777498942 | 8.89° C | 60% | 1017.9 hPa | 0 mm | - | 228 W/m² | - |
| 1777498638 | 9.44° C | 59% | 1018 hPa | 0 mm | - | 606 W/m² | - |
| 1777498334 | 8.89° C | 60% | 1017.9 hPa | 0 mm | - | 539 W/m² | - |
| 1777498033 | 8.33° C | 59% | 1018 hPa | 0 mm | - | 743 W/m² | - |
| 1777497729 | 8.89° C | 62% | 1018.1 hPa | 0 mm | - | 340 W/m² | - |
| 1777497425 | 8.89° C | 62% | 1018.3 hPa | 0 mm | - | 305 W/m² | - |
| 1777497121 | 8.89° C | 59% | 1017.8 hPa | 0 mm | - | 719 W/m² | - |
| 1777496818 | 8.89° C | 62% | 1017.9 hPa | 0 mm | - | 763 W/m² | - |
| 1777496515 | 8.33° C | 61% | 1017.8 hPa | 0 mm | - | 857 W/m² | - |
| 1777496211 | 7.78° C | 63% | 1017.9 hPa | 0 mm | - | 683 W/m² | - |
| 1777495907 | 7.78° C | 63% | 1017.9 hPa | 0 mm | - | 248 W/m² | - |
| 1777495603 | 7.78° C | 67% | 1018 hPa | 0 mm | - | 514 W/m² | - |
| 1777495299 | 7.78° C | 65% | 1017.8 hPa | 0 mm | - | 322 W/m² | - |
| 1777494997 | 7.78° C | 68% | 1017.9 hPa | 0 mm | - | 374 W/m² | - |
| 1777494694 | 7.78° C | 68% | 1017.9 hPa | 0 mm | - | 442 W/m² | - |
| 1777494391 | 7.78° C | 71% | 1018 hPa | 0 mm | - | 455 W/m² | - |
| 1777494087 | 7.22° C | 70% | 1017.9 hPa | 0 mm | - | 292 W/m² | - |
| 1777493785 | 7.78° C | 68% | 1018 hPa | 0 mm | - | 331 W/m² | - |
| 1777493483 | 7.78° C | 72% | 1018 hPa | 0 mm | - | 566 W/m² | - |
| 1777493180 | 6.67° C | 77% | 1018.2 hPa | 0 mm | - | 721 W/m² | - |
| 1777492876 | 5.56° C | 76% | 1018.2 hPa | 0 mm | - | 806 W/m² | - |
* Rain latest hour (hover to see other rain measurements)
** Current wind speed in m/s (hover to see current wind gust speed)